Flint, MI

9:59 AM EDT on October 17, 2019 (GMT -0400)
Bishop International

Weather History for KFNT - September, 2019

Change the Weather History Date:

Saturday, September 21, 2019

  Actual Average Record
Temperature  
Mean Temperature 75 °F 59 °F  
Max Temperature 88 °F 70 °F 93 °F (2017)
Min Temperature 61 °F 48 °F 32 °F (1956)
Degree Days  
Heating Degree Days 0 7  
Month to date heating degree days 12 86  
Since 1 July heating degree days 22 130  
Cooling Degree Days 10 1  
Month to date cooling degree days 79 40  
Year to date cooling degree days 689 517  
Growing Degree Days 24 (Base 50)    
Moisture  
Dew Point 65 °F    
Average Humidity 72    
Maximum Humidity 93    
Minimum Humidity 50    
Precipitation  
Precipitation 0.12 in 0.14 in 1.73 in (1947)
Month to date precipitation 1.58 2.66  
Year to date precipitation 25.42 23.22  
Snow  
Snow 0.00 in 0.00 in 0.00 in ()
Month to date snowfall 0.0 0.0  
Since 1 July snowfall 0.0 0.0  
Since 1 September snowfall 0.0 0.0  
Snow Depth 0.00 in    
Sea Level Pressure  
Sea Level Pressure 30.11 in    
Wind  
Wind Speed 5 mph (SSW)    
Max Wind Speed 29 mph    
Max Gust Speed 35 mph    
Visibility 8 miles    
Events Rain , Thunderstorm    
T = Trace of Precipitation, MM = Missing Value Source: NWS Daily Summary

Daily Weather History Graph

Daily Weather History Graph

Search for Another Location

Airport or City:

Astronomy

Sep. 21, 2019 Rise Set
Actual Time 7:20 AM EDT 7:34 PM EDT
Civil Twilight 6:52 AM EDT 8:02 PM EDT
Nautical Twilight 6:19 AM EDT 8:35 PM EDT
Astronomical Twilight 5:45 AM EDT 9:09 PM EDT
Moon No Moon Rise 2:35 PM EDT (9/21)
Length of Visible Light 13h 10m
Length of Day
12h 13m
Waning Gibbous, 55% of the Moon is Illuminated
Sep 21
Waning Gibbous
Sep 21
Last Quarter
Sep 28
New
Oct 5
First Quarter
Oct 13
Full

Hourly Weather History & Observations

Time (EDT) Temp. Heat Index Dew Point Humidity Pressure Visibility Wind Dir Wind Speed Gust Speed Precip Events Conditions
12:53 AM 66.0 °F - 60.1 °F 81% 30.14 in 10.0 mi South 3.5 mph - N/A   Partly Cloudy
1:53 AM 64.9 °F - 60.1 °F 84% 30.14 in 10.0 mi Calm Calm - N/A   Clear
2:53 AM 64.0 °F - 61.0 °F 90% 30.14 in 10.0 mi ESE 3.5 mph - N/A   Clear
3:53 AM 64.0 °F - 61.0 °F 90% 30.14 in 10.0 mi Calm Calm - N/A   Mostly Cloudy
4:53 AM 66.0 °F - 62.1 °F 87% 30.13 in 9.0 mi Calm Calm - N/A   Scattered Clouds
5:40 AM 63.0 °F - 60.1 °F 90% 30.15 in 1.8 mi Calm Calm - N/A   Clear
5:53 AM 63.0 °F - 60.1 °F 90% 30.14 in 2.5 mi Calm Calm - N/A   Clear
6:05 AM 62.1 °F - 60.1 °F 93% 30.15 in 4.0 mi Calm Calm - N/A   Clear
6:14 AM 62.1 °F - 59.0 °F 90% 30.15 in 5.0 mi Calm Calm - N/A   Clear
6:24 AM 62.1 °F - 59.0 °F 90% 30.15 in 5.0 mi Calm Calm - N/A   Clear
6:53 AM 63.0 °F - 60.1 °F 90% 30.15 in 7.0 mi Calm Calm - N/A   Partly Cloudy
7:10 AM 64.0 °F - 60.1 °F 87% 30.16 in 1.8 mi Calm Calm - 0.00 in Rain Light Rain
7:20 AM 63.0 °F - 60.1 °F 90% 30.16 in 7.0 mi Calm Calm - 0.00 in   Scattered Clouds
7:53 AM 63.0 °F - 61.0 °F 93% 30.16 in 7.0 mi Calm Calm - 0.00 in   Partly Cloudy
8:53 AM 71.1 °F - 64.9 °F 81% 30.17 in 9.0 mi SSW 5.8 mph - N/A   Overcast
9:53 AM 75.9 °F - 66.0 °F 71% 30.16 in 10.0 mi SSW 8.1 mph - N/A   Partly Cloudy
10:53 AM 81.0 °F 83.3 °F 66.9 °F 62% 30.14 in 10.0 mi SW 6.9 mph - N/A   Clear
11:53 AM 84.0 °F 87.8 °F 69.1 °F 61% 30.14 in 10.0 mi SW 10.4 mph - N/A   Clear
12:53 PM 86.0 °F 90.7 °F 70.0 °F 59% 30.11 in 10.0 mi SW 10.4 mph - N/A   Clear
1:53 PM 87.1 °F 89.9 °F 66.9 °F 51% 30.10 in 10.0 mi SW 13.8 mph - N/A   Partly Cloudy
2:53 PM 87.1 °F 89.9 °F 66.9 °F 51% 30.09 in 10.0 mi SW 8.1 mph - N/A   Partly Cloudy
3:53 PM 87.1 °F 91.3 °F 69.1 °F 55% 30.07 in 10.0 mi SW 8.1 mph - N/A   Scattered Clouds
4:53 PM 84.9 °F 87.6 °F 66.9 °F 55% 30.06 in 10.0 mi SW 9.2 mph - N/A   Partly Cloudy
5:17 PM 82.9 °F 85.8 °F 68.0 °F 60% 30.07 in 10.0 mi SSW 4.6 mph - N/A Thunderstorm Mostly Cloudy
5:33 PM 73.0 °F - 66.0 °F 79% 30.08 in 1.5 mi West 15.0 mph 34.5 mph 0.00 in Rain , Thunderstorm Heavy Rain
5:43 PM 72.0 °F - 66.0 °F 81% 30.08 in 3.0 mi NW 10.4 mph - 0.12 in Rain , Thunderstorm Light Thunderstorms and Rain
5:53 PM 73.9 °F - 68.0 °F 82% 30.07 in 10.0 mi WNW 5.8 mph - 0.12 in Thunderstorm Thunderstorm
6:08 PM 75.0 °F - 68.0 °F 79% 30.09 in 10.0 mi SE 3.5 mph - N/A Thunderstorm Scattered Clouds
6:41 PM 73.9 °F - 68.0 °F 82% 30.09 in 10.0 mi South 4.6 mph - N/A   Scattered Clouds
6:53 PM 73.9 °F - 69.1 °F 85% 30.08 in 10.0 mi Calm Calm - N/A   Mostly Cloudy
7:53 PM 73.0 °F - 68.0 °F 84% 30.06 in 10.0 mi South 5.8 mph - N/A   Scattered Clouds
8:53 PM 73.9 °F - 69.1 °F 85% 30.07 in 10.0 mi South 5.8 mph - 0.00 in   Mostly Cloudy
9:53 PM 75.0 °F - 66.9 °F 76% 30.07 in 10.0 mi South 5.8 mph - N/A   Scattered Clouds
10:53 PM 73.9 °F - 66.9 °F 79% 30.07 in 10.0 mi South 6.9 mph - N/A   Overcast
11:53 PM 75.0 °F - 66.9 °F 76% 30.05 in 10.0 mi South 5.8 mph - N/A   Overcast